Location: Unspecified
(48.2082°N, 0.0000°E)
Time: 20:27:08
(UTC+00:00)

A-11 Canister half - Pass Details

Date: 26 June 2019
Orbit: 1514 x 1685 km, 47.2° (Epoch: 17 July)

Event Time Altitude Azimuth Distance (km) Brightness Sun altitude
Rises 16:09:52 0° 290° (WNW) 4,807 12.4 35.8°
Reaches altitude 10° 16:13:23 10° 282° (WNW) 3,794 12.3 35.2°
Maximum altitude 16:21:32 33° 223° (SW) 2,375 11.0 33.9°
Drops below altitude 10° 16:29:29 10° 164° (SSE) 3,685 10.9 32.5°
Sets 16:32:52 0° 155° (SSE) 4,652 11.3 32.0°
